Rhodes, Greece

10:29 AM EET on January 17, 2018 (GMT +0200)
Diagoras

Weather History for LGRP - December, 2012

Change the Weather History Date:

Sunday, December 23, 2012

  Actual Average Record
Temperature  
Mean Temperature 56 °F -  
Max Temperature 59 °F 60 °F 66 °F (1996)
Min Temperature 52 °F 48 °F 44 °F (2016)
Degree Days  
Heating Degree Days 10    
Growing Degree Days 6 (Base 50)    
Moisture  
Dew Point 54 °F    
Average Humidity 91    
Maximum Humidity 100    
Minimum Humidity 81    
Precipitation  
Precipitation 1.73 in 0.19 in - ()
Sea Level Pressure  
Sea Level Pressure 29.84 in    
Wind  
Wind Speed 3 mph ()    
Max Wind Speed 14 mph    
Max Gust Speed -    
Visibility 5.6 miles    
Events Rain    
Averages and records for this station are not official NWS values.
T = Trace of Precipitation, MM = Missing Value Source: Averaged Metar Reports

Daily Weather History Graph

Daily Weather History Graph

Search for Another Location

Airport or City:

Trip Planner

Search our weather history database for the weather conditions in past years. The results will help you decide how hot, cold, wet, or windy it might be!

Date:

Astronomy

Dec. 23, 2012 Rise Set
Actual Time 7:16 AM EET 4:57 PM EET
Civil Twilight 6:47 AM EET 5:26 PM EET
Nautical Twilight 6:15 AM EET 5:58 PM EET
Astronomical Twilight 5:44 AM EET 6:29 PM EET
Moon 1:33 PM EET (12/23) 2:44 AM EET (12/23)
Length of Visible Light 10h 38m
Length of Day
9h 40m
Waxing Gibbous, 79% of the Moon is Illuminated
Dec 23
Waxing Gibbous
Dec 28
Full
Jan 5
Last Quarter
Jan 11
New
Jan 19
First Quarter

Hourly Weather History & Observations

Time (EET) Temp. Dew Point Humidity Pressure Visibility Wind Dir Wind Speed Gust Speed Precip Events Conditions
12:20 AM 55.4 °F 55.4 °F 100% 29.77 in 6.2 mi East 6.9 mph - N/A   Mostly Cloudy
12:50 AM 55.4 °F 53.6 °F 94% 29.77 in 6.2 mi Calm Calm - N/A   Mostly Cloudy
1:20 AM 55.4 °F 53.6 °F 94% 29.77 in 6.2 mi Calm Calm - N/A   Mostly Cloudy
1:50 AM 55.4 °F 51.8 °F 88% 29.77 in 6.2 mi SSE 4.6 mph - N/A   Scattered Clouds
2:00 AM 55 °F 52 °F 88% 29.78 in 6 mi SSE 4.6 mph - -   Partly Cloudy
2:20 AM 55.4 °F 51.8 °F 88% 29.77 in 6.2 mi SSE 4.6 mph - N/A   Mostly Cloudy
2:50 AM 55.4 °F 53.6 °F 94% 29.77 in 6.2 mi Calm Calm - N/A Rain Light Rain
3:20 AM 55.4 °F 53.6 °F 94% 29.77 in 6.2 mi Calm Calm - N/A Rain Light Rain
3:50 AM 53.6 °F 51.8 °F 94% 29.80 in 6.2 mi Calm Calm - N/A   Overcast
4:20 AM 53.6 °F 51.8 °F 94% 29.80 in 6.2 mi Calm Calm - N/A   Overcast
4:50 AM 53.6 °F 53.6 °F 100% 29.77 in 6.2 mi Calm Calm - N/A   Overcast
5:20 AM 53.6 °F 53.6 °F 100% 29.77 in 6.2 mi Calm Calm - N/A   Scattered Clouds
5:50 AM 55.4 °F 53.6 °F 94% 29.80 in 6.2 mi Calm Calm - N/A   Scattered Clouds
6:20 AM 55.4 °F 53.6 °F 94% 29.80 in 6.2 mi Calm Calm - N/A   Mostly Cloudy
6:50 AM 55.4 °F 51.8 °F 88% 29.80 in 6.2 mi Calm Calm - N/A   Mostly Cloudy
7:20 AM 55.4 °F 51.8 °F 88% 29.80 in 6.2 mi Calm Calm - N/A Rain Light Rain
7:50 AM 55.4 °F 51.8 °F 88% 29.80 in 6.2 mi Variable 2.3 mph - N/A   Mostly Cloudy
8:00 AM 55 °F 52 °F 86% 29.83 in 6 mi 2.3 mph - - Rain Light Rain
8:20 AM 57.2 °F 53.6 °F 88% 29.80 in 5.0 mi ENE 13.8 mph - N/A Rain Light Rain
8:50 AM 57.2 °F 53.6 °F 88% 29.83 in 3.1 mi Variable 2.3 mph - N/A Rain Rain
9:20 AM 57.2 °F 53.6 °F 88% 29.83 in 3.1 mi SSE 4.6 mph - N/A Rain Rain
9:50 AM 57.2 °F 53.6 °F 88% 29.86 in 5.0 mi SE 5.8 mph - N/A Rain Light Rain
10:20 AM 57.2 °F 53.6 °F 88% 29.86 in 5.0 mi SE 8.1 mph - N/A Rain Light Rain
10:50 AM 55.4 °F 53.6 °F 94% 29.86 in 5.0 mi East 5.8 mph - N/A Rain Light Rain
11:20 AM 55.4 °F 53.6 °F 94% 29.86 in 5.0 mi Variable 2.3 mph - N/A Rain Light Rain
11:50 AM 55.4 °F 53.6 °F 94% 29.86 in 5.0 mi Variable 2.3 mph - N/A Rain Light Rain
12:20 PM 55.4 °F 53.6 °F 94% 29.86 in 6.2 mi East 4.6 mph - N/A   Overcast
12:50 PM 57.2 °F 53.6 °F 88% 29.86 in 5.6 mi East 9.2 mph - N/A Rain Light Rain
1:20 PM 57.2 °F 53.6 °F 88% 29.86 in 5.6 mi ENE 5.8 mph - N/A Rain Light Rain
1:50 PM 59.0 °F 57.2 °F 94% 29.83 in 3.7 mi ENE 11.5 mph - N/A Rain Rain
2:00 PM 59 °F 57 °F 92% 29.85 in 4 mi ENE 11.5 mph - - Rain Rain
2:20 PM 59.0 °F 57.2 °F 94% 29.83 in 3.7 mi ENE 11.5 mph - N/A Rain Rain
2:50 PM 59.0 °F 57.2 °F 94% 29.83 in 3.1 mi NE 5.8 mph - N/A Rain Rain
3:20 PM 59.0 °F 57.2 °F 94% 29.83 in 3.7 mi NE 5.8 mph - N/A Rain Rain
3:50 PM 59.0 °F 57.2 °F 94% 29.83 in 4.3 mi Variable 3.5 mph - N/A Rain Light Rain
4:20 PM 59.0 °F 57.2 °F 94% 29.83 in 5.6 mi Variable 3.5 mph - N/A Rain Light Rain
4:50 PM 57.2 °F 55.4 °F 94% 29.86 in 5.6 mi ENE 4.6 mph - N/A Rain Light Rain
5:20 PM 57.2 °F 55.4 °F 94% 29.86 in 5.6 mi East 3.5 mph - N/A Rain Light Rain
5:50 PM 57.2 °F 55.4 °F 94% 29.86 in 6.2 mi Variable 4.6 mph - N/A   Overcast
6:20 PM 57.2 °F 55.4 °F 94% 29.86 in 6.2 mi Variable 3.5 mph - N/A   Overcast
6:50 PM 55.4 °F 53.6 °F 94% 29.89 in 6.2 mi Variable 3.5 mph - N/A   Overcast
7:20 PM 55.4 °F 53.6 °F 94% 29.89 in 6.2 mi Variable 2.3 mph - N/A   Overcast
7:50 PM 59.0 °F 55.4 °F 88% 29.89 in 6.2 mi Variable 2.3 mph - N/A   Overcast
8:00 PM 59 °F 55 °F 81% 29.91 in 6 mi 2.3 mph - -   Overcast
8:20 PM 59.0 °F 55.4 °F 88% 29.89 in 6.2 mi Variable 2.3 mph - N/A   Overcast
8:50 PM 59.0 °F 55.4 °F 88% 29.92 in 6.2 mi Variable 2.3 mph - N/A   Overcast
9:20 PM 59.0 °F 55.4 °F 88% 29.92 in 6.2 mi Variable 2.3 mph - N/A   Overcast
9:50 PM 59.0 °F 53.6 °F 82% 29.92 in 6.2 mi Variable 2.3 mph - N/A   Mostly Cloudy
10:20 PM 57.2 °F 53.6 °F 88% 29.92 in 6.2 mi Variable 2.3 mph - N/A   Mostly Cloudy
10:50 PM 57.2 °F 53.6 °F 88% 29.92 in 6.2 mi Variable 2.3 mph - N/A   Mostly Cloudy
11:20 PM 57.2 °F 53.6 °F 88% 29.92 in 6.2 mi Variable 2.3 mph - N/A   Mostly Cloudy
11:50 PM 57.2 °F 53.6 °F 88% 29.92 in 6.2 mi Variable 2.3 mph - N/A   Mostly Cloudy